DateTimeUTC,F1_A11,F1_S11,BsB_S11,BsG_S11,BsR_S11,BbsB_S11,BbsG_S11,BbsR_S11,BaB_A11,BaG_A11,BaR_A11,Tu_S11,T_S11,Uu_S11,U_S11,P_S11,T1_A11
2021-08-02T10:00:00Z,00000200,20000000,,,,,,,0000.27,0000.42,0000.38,17.9,24.7,09.5,06.3,0672.8,30.9
2021-08-02T10:01:00Z,00000200,20000000,,,,,,,0000.27,0000.10,0000.27,17.9,24.8,09.9,06.5,0672.8,31.0
2021-08-02T10:02:00Z,00000200,20000000,,,,,,,-000.39,-000.60,-000.40,17.9,24.8,09.9,06.5,0672.8,31.0
2021-08-02T10:03:00Z,00000200,60000000,,,,,,,0001.23,0001.19,0001.24,17.9,24.8,09.9,06.5,0672.8,30.9
2021-08-02T10:04:00Z,00000200,40000000,0005.67,0003.95,0002.15,0000.66,0000.56,0000.40,0001.20,0001.42,0000.46,18.0,24.6,10.2,06.8,0673.8,30.9
2021-08-02T10:05:00Z,00000200,00000000,0004.47,0003.82,0002.27,0000.62,0000.96,0000.43,0001.23,0000.92,0001.24,18.1,24.5,10.3,06.9,0673.9,31.0
2021-08-02T10:06:00Z,00000200,00000000,0006.06,0003.82,0002.56,0000.94,0000.73,0000.66,0001.23,0001.62,0000.81,18.1,24.5,10.5,07.0,0673.9,30.9
2021-08-02T10:07:00Z,00000200,00000000,0005.72,0003.81,0002.63,0001.64,0000.81,0000.35,0001.21,0001.06,0001.17,18.1,24.5,10.5,07.1,0673.9,30.9
2021-08-02T10:08:00Z,00000200,00000000,0005.77,0004.18,0002.24,0000.15,0000.55,0000.17,0001.66,0001.03,0000.78,18.1,24.5,10.6,07.2,0673.9,31.0
2021-08-02T10:09:00Z,00000200,00000000,0005.97,0004.33,0002.60,0001.16,0000.73,0000.36,0000.58,0001.02,0000.53,18.1,24.5,10.4,07.1,0673.9,30.9
2021-08-02T10:10:00Z,00000200,00000000,0006.70,0004.51,0002.50,0000.99,0000.68,0000.40,0001.75,0001.01,0000.72,18.1,24.5,10.2,06.9,0674.0,30.9
2021-08-02T10:11:00Z,00000200,00000000,0006.62,0004.96,0002.95,0000.96,0000.74,0000.43,0001.31,0001.55,0001.24,18.2,24.5,10.2,07.0,0674.0,30.9
2021-08-02T10:12:00Z,00000200,00000000,0006.71,0004.68,0003.27,0001.13,0000.95,0000.40,0001.48,0001.21,0001.10,18.2,24.5,10.4,07.1,0674.0,31.0
2021-08-02T10:13:00Z,00000200,00000000,0006.97,0005.08,0003.04,0001.27,0000.76,0000.52,0001.43,0001.63,0001.29,18.2,24.5,10.5,07.2,0674.0,31.0
2021-08-02T10:14:00Z,00000200,00000000,0007.20,0005.13,0003.20,0001.44,0000.79,0000.35,0001.81,0001.53,0000.91,18.2,24.5,10.6,07.2,0674.0,31.0
2021-08-02T10:15:00Z,00000200,00000000,0008.06,0005.19,0003.12,0000.88,0000.97,0000.88,0001.33,0001.58,0001.15,18.2,24.5,10.8,07.3,0674.0,30.9
2021-08-02T10:16:00Z,00000200,00000000,0008.23,0005.49,0002.94,0001.36,0000.65,0000.66,0002.16,0001.36,0001.46,18.2,24.5,10.9,07.4,0674.0,30.9
2021-08-02T10:17:00Z,00000200,00000000,0006.96,0005.09,0003.03,0001.09,0000.81,0000.36,0001.50,0001.80,0001.29,18.2,24.5,11.0,07.5,0674.0,31.0
2021-08-02T10:18:00Z,00000200,00000000,0007.40,0005.06,0003.13,0001.22,0000.91,0000.54,0001.75,0001.25,0000.96,18.2,24.5,11.1,07.5,0674.0,31.0
2021-08-02T10:19:00Z,00000200,00000000,0008.34,0005.49,0003.33,0001.15,0000.77,0000.47,0001.98,0001.75,0001.46,18.2,24.5,11.2,07.6,0674.0,31.0
2021-08-02T10:20:00Z,00000200,00000000,0007.45,0005.42,0003.39,0001.43,0000.88,0000.88,0001.30,0001.58,0000.99,18.2,24.5,11.3,07.7,0674.0,30.9
2021-08-02T10:21:00Z,00000200,00000000,0007.32,0005.51,0003.28,0000.80,0001.05,0000.56,0002.25,0001.62,0001.58,18.2,24.5,11.3,07.7,0674.0,31.0
2021-08-02T10:22:00Z,00000200,00000000,0007.01,0005.72,0003.57,0001.33,0000.70,0000.71,0001.55,0001.85,0001.31,18.2,24.5,11.5,07.8,0674.0,31.0
2021-08-02T10:23:00Z,00000200,00000000,0007.87,0005.49,0003.06,0001.37,0000.89,0000.64,0001.82,0001.65,0001.46,18.2,24.5,11.7,08.0,0674.0,30.9
2021-08-02T10:24:00Z,00000200,00000000,0007.41,0005.48,0003.26,0001.43,0001.07,0000.52,0001.97,0001.94,0001.28,18.2,24.5,12.0,08.2,0674.0,31.0
2021-08-02T10:25:00Z,00000200,00000000,0007.54,0005.31,0003.41,0001.34,0000.68,0000.48,0001.90,0001.66,0001.20,18.2,24.5,12.2,08.3,0674.1,30.9
2021-08-02T10:26:00Z,00000200,00000000,0007.69,0005.41,0003.52,0001.07,0001.04,0000.50,0000.32,0000.36,-000.01,18.2,24.5,12.6,08.6,0674.1,31.0
2021-08-02T10:27:00Z,00000200,00000000,0007.19,0005.82,0003.12,0000.33,0000.95,0000.35,0002.11,0001.71,0001.51,18.2,24.5,12.7,08.7,0674.1,31.0
2021-08-02T10:28:00Z,00000200,00000000,0007.12,0005.28,0003.55,0001.02,0001.23,0000.61,0001.96,0001.70,0001.20,18.3,24.5,12.9,08.8,0674.1,31.0
2021-08-02T10:29:00Z,00000200,00000000,0007.80,0005.66,0003.42,0000.71,0001.11,0000.61,0001.72,0001.63,0001.24,18.3,24.5,13.0,08.9,0674.1,31.0
2021-08-02T10:30:00Z,00000200,00000000,0007.65,0005.52,0003.13,0000.81,0000.81,0000.93,0001.63,0002.03,0001.62,18.3,24.5,13.1,08.9,0674.1,31.0
2021-08-02T10:31:00Z,00000200,00000000,0007.64,0005.58,0003.32,0001.41,0000.99,0000.70,0002.12,0001.58,0001.38,18.3,24.5,13.3,09.1,0674.1,31.0
2021-08-02T10:32:00Z,00000200,00000000,0008.11,0005.65,0003.29,0001.78,0000.86,0000.65,0001.75,0001.41,0000.58,18.3,24.5,13.3,09.1,0674.1,31.0
2021-08-02T10:33:00Z,00000200,00000000,0008.04,0005.40,0003.20,0001.56,0001.25,0000.70,0001.43,0001.22,0001.36,18.3,24.5,13.2,09.1,0674.1,31.0
2021-08-02T10:34:00Z,00000200,00000000,0008.09,0005.56,0002.96,0001.26,0001.10,0000.32,0001.46,0001.50,0001.13,18.3,24.5,13.1,09.0,0674.1,31.0
2021-08-02T10:35:00Z,00000200,00000000,0008.19,0005.71,0003.52,0001.06,0001.02,0000.52,0001.54,0001.41,0001.03,18.3,24.5,13.0,08.9,0674.1,31.0
2021-08-02T10:36:00Z,00000200,00000000,0007.31,0005.58,0002.95,0000.94,0000.66,0000.59,0002.03,0001.82,0001.50,18.3,24.5,13.1,08.9,0674.1,31.0
2021-08-02T10:37:00Z,00000200,00000000,0007.84,0005.74,0003.16,0001.36,0000.59,0000.53,0001.68,0001.31,0001.02,18.3,24.5,12.9,08.8,0674.1,31.0
2021-08-02T10:38:00Z,00000200,00000000,0008.48,0005.75,0003.55,0001.29,0001.22,0000.59,0001.32,0001.48,0001.20,18.3,24.5,12.8,08.8,0674.1,31.0
2021-08-02T10:39:00Z,00000200,00000000,0008.39,0005.61,0003.66,0001.22,0001.07,0000.81,0001.68,0001.35,0000.82,18.3,24.5,12.8,08.7,0674.2,31.0
2021-08-02T10:40:00Z,00000200,00000000,0008.28,0005.18,0003.40,0000.97,0000.70,0000.54,0001.84,0001.73,0001.38,18.3,24.5,12.6,08.7,0674.1,31.0
2021-08-02T10:41:00Z,00000200,00000000,0007.53,0005.38,0003.62,0001.09,0000.90,0000.74,0001.74,0001.54,0001.00,18.3,24.5,12.5,08.6,0674.1,31.0
2021-08-02T10:42:00Z,00000200,00000000,0007.90,0005.80,0003.02,0001.08,0001.10,0000.49,0001.39,0001.54,0001.21,18.3,24.5,12.6,08.7,0674.1,31.0
2021-08-02T10:43:00Z,00000200,00000000,0007.39,0005.50,0003.41,0001.21,0001.00,0000.69,0001.50,0001.00,0001.10,18.4,24.5,12.5,08.6,0674.1,31.0
2021-08-02T10:44:00Z,00000200,00000000,0007.75,0005.82,0003.02,0000.94,0000.99,0000.56,0001.71,0001.66,0000.85,18.4,24.5,12.3,08.4,0674.1,31.0
2021-08-02T10:45:00Z,00000200,00000000,0007.65,0005.65,0003.40,0001.37,0000.71,0000.37,0001.59,0001.26,0001.07,18.4,24.5,12.0,08.2,0674.1,31.0
2021-08-02T10:46:00Z,00000200,00000000,0007.31,0005.94,0003.38,0000.76,0001.13,0000.61,0001.28,0001.53,0001.13,18.4,24.5,12.1,08.3,0674.2,31.0
2021-08-02T10:47:00Z,00000200,00000000,0007.44,0005.32,0002.91,0000.56,0000.81,0000.58,0002.07,0001.55,0001.65,18.4,24.5,12.3,08.4,0674.2,31.0
2021-08-02T10:48:00Z,00000200,00000000,0007.79,0005.34,0003.34,0001.25,0000.81,0000.67,0002.01,0002.31,0001.41,18.4,24.5,12.5,08.6,0674.2,31.0
2021-08-02T10:49:00Z,00000200,00000000,0007.91,0005.50,0003.23,0001.55,0000.86,0000.51,0001.77,0001.46,0001.38,18.4,24.5,12.8,08.8,0674.2,31.0
2021-08-02T10:50:00Z,00000200,00000000,0007.42,0005.53,0003.23,0001.53,0000.94,0000.41,0002.01,0001.81,0001.43,18.4,24.5,12.9,08.9,0674.2,31.0
2021-08-02T10:51:00Z,00000200,00000000,0008.44,0005.98,0003.15,0000.76,0000.83,0000.65,0001.58,0001.44,0000.90,18.4,24.5,13.1,08.9,0674.2,31.0
2021-08-02T10:52:00Z,00000200,00000000,0007.61,0005.61,0003.37,0000.74,0001.04,0000.49,0001.74,0001.52,0001.00,18.4,24.6,13.0,08.9,0674.2,31.0
2021-08-02T10:53:00Z,00000200,00000000,0008.06,0005.80,0003.29,0000.52,0001.00,0000.71,0001.53,0001.33,0001.42,18.4,24.5,12.9,08.8,0674.2,31.0
2021-08-02T10:54:00Z,00000200,00000000,0007.82,0005.45,0003.09,0001.80,0000.91,0000.57,0001.42,0001.59,0000.71,18.4,24.6,12.7,08.7,0674.2,31.0
2021-08-02T10:55:00Z,00000200,00000000,0008.40,0005.29,0003.73,0001.11,0001.03,0000.47,0001.72,0001.16,0001.10,18.4,24.6,12.6,08.6,0674.2,31.0
2021-08-02T10:56:00Z,00000200,00000000,0007.94,0005.28,0003.45,0000.58,0000.72,0000.62,0001.23,0001.62,0001.23,18.4,24.6,12.5,08.6,0674.2,31.0
2021-08-02T10:57:00Z,00000200,40000000,,,,,,,0000.68,-000.06,0000.10,18.5,24.6,12.1,08.3,0674.2,31.0
2021-08-02T10:58:00Z,00000200,60000000,,,,,,,-000.36,0000.43,-000.02,18.2,24.7,12.3,08.3,0673.2,31.0
2021-08-02T10:59:00Z,00000200,20000000,,,,,,,0000.44,-000.43,0000.18,18.2,24.8,12.4,08.3,0673.2,31.0
